Jessheim, Norway

6:03 AM CEST on April 29, 2017 (GMT +0200)
Jessheim

Weather History for 01384 - November, 2013

Change the Weather History Date:

Wednesday, November 6, 2013

  Actual Average Record
Temperature  
Mean Temperature 33 °F -  
Max Temperature 34 °F 34 °F - ()
Min Temperature 32 °F 25 °F - ()
Degree Days  
Heating Degree Days 32    
Moisture  
Dew Point 32 °F    
Average Humidity 97    
Maximum Humidity 100    
Minimum Humidity 87    
Precipitation  
Precipitation 0.00 in 0.11 in - ()
Sea Level Pressure  
Sea Level Pressure 29.23 in    
Wind  
Wind Speed 2 mph ()    
Max Wind Speed 7 mph    
Max Gust Speed 17 mph    
Visibility 3.4 miles    
Events Fog    
T = Trace of Precipitation, MM = Missing Value Source: Averaged Metar Reports

Daily Weather History Graph

Daily Weather History Graph

Search for Another Location

Airport or City:

Trip Planner

Search our weather history database for the weather conditions in past years. The results will help you decide how hot, cold, wet, or windy it might be!

Date:

Astronomy

Nov. 06, 2013 Rise Set
Actual Time 7:51 AM CET 4:05 PM CET
Civil Twilight 7:05 AM CET 4:52 PM CET
Nautical Twilight 6:14 AM CET 5:43 PM CET
Astronomical Twilight 5:25 AM CET 6:31 PM CET
Moon 11:17 AM CET (11/6) 6:26 PM CET (11/6)
Length of Visible Light 9h 47m
Length of Day
8h 13m
Waxing Crescent, 11% of the Moon is Illuminated
Nov 6
Waxing Crescent
Nov 10
First Quarter
Nov 17
Full
Nov 25
Last Quarter
Dec 3
New

Hourly Weather History & Observations

Time (CET) Temp. Windchill Dew Point Humidity Pressure Visibility Wind Dir Wind Speed Gust Speed Precip Events Conditions
12:20 AM 32.0 °F - 32.0 °F 100% 29.09 in - Calm Calm - N/A Fog Light Freezing Fog
12:50 AM 32.0 °F - 30.2 °F 93% 29.09 in 0.4 mi Calm Calm - N/A Fog Light Freezing Fog
1:00 AM 32 °F - 31 °F 97%  in 0 mi Calm Calm - - Fog Heavy Fog
1:20 AM 32.0 °F - 32.0 °F 100% 29.09 in 0.3 mi Calm Calm - N/A Fog Light Freezing Fog
1:50 AM 32.0 °F - 32.0 °F 100% 29.12 in 0.2 mi Variable 1.2 mph - N/A Fog Light Freezing Fog
2:20 AM 32.0 °F - 32.0 °F 100% 29.12 in - Variable 2.3 mph - N/A Fog Light Freezing Fog
2:50 AM 32.0 °F - 32.0 °F 100% 29.12 in 0.4 mi Calm Calm - N/A Fog Light Freezing Fog
3:20 AM 32.0 °F - 32.0 °F 100% 29.12 in 0.4 mi Variable 2.3 mph - N/A Fog Light Freezing Fog
3:50 AM 32.0 °F - 32.0 °F 100% 29.12 in 0.7 mi ESE 2.3 mph - N/A Fog Light Freezing Drizzle
4:20 AM 32.0 °F - 32.0 °F 100% 29.15 in 0.6 mi Variable 1.2 mph - N/A Fog Fog
4:50 AM 32.0 °F - 32.0 °F 100% 29.15 in 0.4 mi Variable 2.3 mph - N/A Fog Fog
5:20 AM 32.0 °F - 32.0 °F 100% 29.15 in - Variable 2.3 mph - N/A Fog Fog
5:50 AM 32.0 °F - 32.0 °F 100% 29.15 in 0.4 mi Variable 1.2 mph - N/A Fog Fog
6:20 AM 32.0 °F 28.7 °F 32.0 °F 100% 29.15 in 1.3 mi NNE 3.5 mph - N/A   Mist
6:50 AM 32.0 °F 27.5 °F 32.0 °F 100% 29.15 in 0.7 mi NNE 4.6 mph - N/A   Mist
7:00 AM 33 °F - 33 °F 98%  in 1 mi North 4.5 mph - -   Mist
7:20 AM 32.0 °F 28.7 °F 30.2 °F 93% 29.18 in 1.7 mi NNW 3.5 mph - N/A   Overcast
7:50 AM 32.0 °F - 30.2 °F 93% 29.18 in 1.7 mi Calm Calm - N/A   Overcast
8:20 AM 32.0 °F - 32.0 °F 100% 29.18 in 1.6 mi Calm Calm - N/A   Overcast
8:50 AM 32.0 °F - 32.0 °F 100% 29.18 in 1.0 mi Calm Calm - N/A   Overcast
9:20 AM 32.0 °F - 32.0 °F 100% 29.21 in 0.5 mi Calm Calm - N/A Fog Light Freezing Fog
9:50 AM 32.0 °F - 32.0 °F 100% 29.21 in - Calm Calm - N/A Fog Light Freezing Fog
10:20 AM 32.0 °F - 32.0 °F 100% 29.21 in 0.4 mi Calm Calm - N/A Fog Light Freezing Fog
10:50 AM 32.0 °F - 32.0 °F 100% 29.21 in 0.5 mi Calm Calm - N/A Fog Fog
11:20 AM 32.0 °F - 32.0 °F 100% 29.24 in 0.4 mi Variable 2.3 mph - N/A Fog Fog
11:50 AM 33.8 °F - 32.0 °F 93% 29.24 in 0.9 mi Variable 1.2 mph - N/A   Mostly Cloudy
12:20 PM 33.8 °F 30.8 °F 33.8 °F 100% 29.24 in 4.3 mi North 3.5 mph - N/A   Overcast
12:50 PM 33.8 °F - 33.8 °F 100% 29.24 in 3.1 mi Calm Calm - N/A   Overcast
1:00 PM 34 °F - 33 °F 97%  in 3 mi East 4.5 mph - -   Mist
1:20 PM 33.8 °F - 33.8 °F 100% 29.24 in 6.2 mi Variable 2.3 mph - N/A   Mostly Cloudy
1:50 PM 33.8 °F - 33.8 °F 100% 29.24 in 5.6 mi Variable 1.2 mph - N/A   Mostly Cloudy
2:20 PM 33.8 °F 30.8 °F 33.8 °F 100% 29.24 in 5.6 mi East 3.5 mph - N/A   Mostly Cloudy
2:50 PM 33.8 °F - 33.8 °F 100% 29.27 in 6.2 mi Variable 2.3 mph - N/A   Overcast
3:20 PM 33.8 °F - 33.8 °F 100% 29.27 in 6.2 mi Calm Calm - N/A   Overcast
3:50 PM 33.8 °F 30.8 °F 33.8 °F 100% 29.27 in 6.2 mi ESE 3.5 mph - N/A   Mostly Cloudy
4:20 PM 33.8 °F 29.6 °F 33.8 °F 100% 29.27 in 5.6 mi SE 4.6 mph - N/A   Overcast
4:50 PM 33.8 °F 29.6 °F 32.0 °F 93% 29.27 in 6.2 mi Variable 4.6 mph 17.3 mph N/A   Overcast
5:20 PM 33.8 °F 28.6 °F 32.0 °F 93% 29.30 in 6.2 mi SE 5.8 mph - N/A   Mostly Cloudy
5:50 PM 33.8 °F 30.8 °F 32.0 °F 93% 29.30 in 6.2 mi ESE 3.5 mph - N/A   Mostly Cloudy
6:20 PM 33.8 °F 30.8 °F 32.0 °F 93% 29.30 in 5.6 mi SE 3.5 mph - N/A   Mostly Cloudy
6:50 PM 33.8 °F 30.8 °F 32.0 °F 93% 29.30 in 5.0 mi Variable 3.5 mph - N/A   Mostly Cloudy
7:00 PM 33 °F - 32 °F 94%  in 6 mi South 2.2 mph - -   Partly Cloudy
7:20 PM 33.8 °F 28.6 °F 32.0 °F 93% 29.30 in 6.2 mi SSW 5.8 mph - N/A   Mostly Cloudy
7:50 PM 33.8 °F 28.6 °F 30.2 °F 87% 29.33 in 6.2 mi South 5.8 mph - N/A   Mostly Cloudy
8:20 PM 33.8 °F 29.6 °F 30.2 °F 87% 29.33 in 6.2 mi SSW 4.6 mph - N/A   Mostly Cloudy
8:50 PM 32.0 °F - 30.2 °F 93% 29.33 in 6.2 mi Variable 2.3 mph - N/A   Mostly Cloudy
9:20 PM 32.0 °F 28.7 °F 32.0 °F 100% 29.33 in 6.2 mi SSE 3.5 mph - N/A   Mostly Cloudy
9:50 PM 32.0 °F 25.6 °F 30.2 °F 93% 29.33 in 6.2 mi South 6.9 mph - N/A   Mostly Cloudy
10:20 PM 32.0 °F 27.5 °F 30.2 °F 93% 29.33 in 6.2 mi SSW 4.6 mph - N/A   Mostly Cloudy
10:50 PM 32.0 °F 27.5 °F 30.2 °F 93% 29.33 in 6.2 mi SW 4.6 mph - N/A   Mostly Cloudy
11:20 PM 32.0 °F 28.7 °F 30.2 °F 93% 29.33 in 6.2 mi SW 3.5 mph - N/A   Mostly Cloudy
11:50 PM 32.0 °F - 30.2 °F 93% 29.33 in 6.2 mi Variable 1.2 mph - N/A   Mostly Cloudy